Flag for U.S.A. Weather past 2 weeks in Garden Grove, California, U.S.A.

Now
62 °F

Overcast.


Feels Like: 62 °F
Forecast: 55 / 72 °F
Wind: 3 mph from Southeast

Location: Fullerton Municipal Airport

Current Time: Apr 1, 2015 at 4:38:54 AM

Latest Report: Apr 1, 2015 at 3:53 AM


Visibility: 10 mi

Pressure: 29.97 "Hg

Humidity: 73%

Dew point: 53 °F

Location of Garden GroveLocation

Historic Weather in Garden Grove — Graph

°F

Garden Grove temperature yesterday

Maximum temperature yesterday: 75 °F (at 12:53 PM)
Minimum temperature yesterday: 59 °F (at 1:53 AM)
Average temperature yesterday: 65 °F

Past Weeks' High & Low Weather Summary

 TemperatureHumidityPressure
High95 °F (Mar 26, 1:53 PM)90% (Mar 29, 4:53 AM)30.18 "Hg (Mar 29, 4:53 AM)
Low56 °F (Mar 24, 5:53 AM)7% (Mar 26, 1:53 PM)29.89 "Hg (Mar 17, 2:53 PM)
Average68 °F59%30.02 "Hg
* Reported Mar 17 2:53 AM — Apr 1 2:53 AM, Garden Grove, Weather by CustomWeather, © 2015

Note: Actual official high and low records may vary slightly from our data, if they occured in-between our weather recording intervals... More about our weather records

Advertising

Garden Grove weather history for previous 24 hours

 ConditionsComfort  
Time TempWeatherWind HumidityBarometerVisibility
2:53 AM
Wed, Apr 1
62 °FOvercast.No wind75%29.97 "Hg10 mi
1:53 AM62 °FOvercast.5 mph75%29.98 "Hg10 mi
12:53 AM62 °FOvercast.No wind75%29.97 "Hg10 mi
11:53 PM
Tue, Mar 31
62 °FClear.3 mph75%29.96 "Hg10 mi
10:53 PM62 °FClear.6 mph78%29.97 "Hg10 mi
9:53 PM62 °FClear.3 mph78%29.97 "Hg10 mi
8:53 PM62 °FClear.5 mph78%29.97 "Hg10 mi
7:53 PM62 °FSunny.6 mph78%29.95 "Hg10 mi
6:53 PM65 °FSunny.8 mph70%29.92 "Hg10 mi
5:53 PM69 °FSunny.6 mph57%29.93 "Hg10 mi
4:53 PM71 °FSunny.7 mph51%29.93 "Hg10 mi
3:53 PM72 °FSunny.8 mph48%29.94 "Hg10 mi
2:53 PM72 °FSunny.8 mph48%29.96 "Hg10 mi
1:53 PM72 °FSunny.12 mph49%29.98 "Hg10 mi
12:53 PM75 °FSunny.9 mph47%29.98 "Hg10 mi
11:53 AM72 °FSunny.6 mph48%30.00 "Hg10 mi
10:53 AM68 °FSunny.No wind61%30.02 "Hg7 mi
9:53 AM64 °FSunny.No wind70%30.01 "Hg6 mi
8:53 AM62 °FOvercast.No wind75%30.00 "Hg5 mi
7:53 AM61 °FOvercast.3 mph78%29.99 "Hg5 mi
6:53 AM60 °FLow clouds.No wind80%29.98 "Hg5 mi
5:53 AM60 °FLow clouds.5 mph83%29.97 "Hg6 mi
4:53 AM60 °FLow clouds.No wind83%29.96 "Hg6 mi
Weather by CustomWeather, © 2015

See weather overviewHow to use our weather pages